| time (UTC) | temp C | wind direction | speed KPH | gust KPH | rain 1hr cm | rain 24hr cm | rain mn cm | humidity % | barometer mb |
| 20260504081021 | 8 | 208 | 4.8 | 4.8 | 0.00 | 0.00 | 0.00 | 71 | 1007.1 |
| 20260504050021 | 6 | 208 | 4.8 | 4.8 | 0.00 | 0.00 | 0.00 | 86 | 1007.7 |
| 20260504045021 | 6 | 208 | 4.8 | 4.8 | 0.00 | 0.00 | 0.00 | 86 | 1007.7 |
| 20260504044020 | 6 | 208 | 4.8 | 4.8 | 0.00 | 0.00 | 0.00 | 87 | 1007.7 |
| 20260504043021 | 6 | 208 | 4.8 | 4.8 | 0.00 | 0.00 | 0.00 | 86 | 1007.7 |
| 20260504042021 | 6 | 208 | 4.8 | 4.8 | 0.00 | 0.00 | 0.00 | 85 | 1007.9 |
| 20260504041021 | 7 | 208 | 4.8 | 4.8 | 0.00 | 0.00 | 0.00 | 83 | 1008.5 |
| 20260504040021 | 7 | 208 | 4.8 | 4.8 | 0.00 | 0.00 | 0.00 | 81 | 1008.5 |
| 20260504035021 | 7 | 208 | 4.8 | 4.8 | 0.00 | 0.00 | 0.00 | 79 | 1008.4 |
| 20260504034022 | 7 | 208 | 4.8 | 4.8 | 0.00 | 0.00 | 0.00 | 77 | 1008.6 |
| 20260504033021 | 8 | 208 | 4.8 | 4.8 | 0.00 | 0.00 | 0.00 | 75 | 1008.6 |
| 20260504032022 | 8 | 208 | 4.8 | 4.8 | 0.00 | 0.00 | 0.00 | 74 | 1008.7 |
| 20260504031022 | 7 | 208 | 4.8 | 4.8 | 0.00 | 0.00 | 0.00 | 73 | 1008.7 |
| 20260504030022 | 7 | 208 | 4.8 | 4.8 | 0.00 | 0.00 | 0.00 | 70 | 1008.5 |
| 20260504025021 | 7 | 208 | 4.8 | 4.8 | 0.00 | 0.00 | 0.00 | 71 | 1008.3 |
| 20260504024022 | 6 | 208 | 4.8 | 4.8 | 0.00 | 0.00 | 0.00 | 73 | 1008.3 |
| 20260504023022 | 6 | 208 | 4.8 | 4.8 | 0.00 | 0.00 | 0.00 | 77 | 1008.3 |
| 20260504022022 | 5 | 208 | 4.8 | 4.8 | 0.00 | 0.00 | 0.00 | 79 | 1008.2 |
| 20260504021021 | 5 | 208 | 4.8 | 4.8 | 0.00 | 0.00 | 0.00 | 76 | 1008.3 |
| 20260504020021 | 5 | 208 | 4.8 | 4.8 | 0.00 | 0.00 | 0.00 | 74 | 1008.3 |
| 20260504015021 | 5 | 208 | 4.8 | 4.8 | 0.00 | 0.00 | 0.00 | 71 | 1008.2 |
| 20260504014021 | 6 | 208 | 4.8 | 4.8 | 0.00 | 0.00 | 0.00 | 68 | 1008.2 |
| 20260504013022 | 7 | 208 | 4.8 | 4.8 | 0.00 | 0.00 | 0.00 | 65 | 1008.3 |
| 20260504012021 | 7 | 208 | 4.8 | 4.8 | 0.00 | 0.00 | 0.00 | 65 | 1008.2 |
| 20260504011021 | 7 | 208 | 4.8 | 4.8 | 0.00 | 0.00 | 0.00 | 66 | 1008.2 |
| 20260504010021 | 6 | 208 | 4.8 | 4.8 | 0.00 | 0.00 | 0.00 | 66 | 1008.2 |
| 20260504005022 | 7 | 208 | 4.8 | 4.8 | 0.00 | 0.00 | 0.00 | 63 | 1008.0 |
| 20260504004021 | 7 | 208 | 4.8 | 4.8 | 0.00 | 0.00 | 0.00 | 61 | 1008.0 |
| 20260504003022 | 8 | 208 | 4.8 | 4.8 | 0.00 | 0.00 | 0.00 | 60 | 1007.9 |
| 20260504002021 | 8 | 208 | 4.8 | 4.8 | 0.00 | 0.00 | 0.00 | 59 | 1007.6 |
| 20260504001021 | 8 | 208 | 4.8 | 4.8 | 0.00 | 0.00 | 0.00 | 59 | 1007.6 |
| 20260504000021 | 9 | 208 | 4.8 | 4.8 | 0.00 | 0.00 | 0.00 | 56 | 1007.6 |
| 20260503235021 | 9 | 208 | 4.8 | 4.8 | 0.00 | 0.00 | 0.00 | 55 | 1007.6 |
| 20260503234021 | 10 | 208 | 4.8 | 4.8 | 0.00 | 0.00 | 0.00 | 55 | 1007.7 |
| 20260503233022 | 10 | 208 | 4.8 | 4.8 | 0.00 | 0.00 | 0.00 | 55 | 1007.7 |
| 20260503232021 | 10 | 208 | 4.8 | 4.8 | 0.00 | 0.00 | 0.00 | 54 | 1007.6 |
| 20260503231021 | 10 | 208 | 4.8 | 4.8 | 0.00 | 0.00 | 0.00 | 52 | 1007.5 |
| 20260503230021 | 10 | 208 | 4.8 | 4.8 | 0.00 | 0.00 | 0.00 | 53 | 1007.5 |
| 20260503225021 | 10 | 208 | 4.8 | 4.8 | 0.00 | 0.00 | 0.00 | 50 | 1007.3 |
| 20260503224021 | 10 | 208 | 4.8 | 4.8 | 0.00 | 0.00 | 0.00 | 50 | 1007.3 |
| 20260503223022 | 10 | 208 | 4.8 | 4.8 | 0.00 | 0.00 | 0.00 | 49 | 1007.3 |
| 20260503222021 | 10 | 208 | 4.8 | 4.8 | 0.00 | 0.00 | 0.00 | 48 | 1007.2 |
| 20260503221022 | 10 | 208 | 4.8 | 4.8 | 0.00 | 0.00 | 0.00 | 46 | 1007.1 |
| 20260503220023 | 10 | 208 | 4.8 | 4.8 | 0.00 | 0.00 | 0.00 | 44 | 1007.2 |
| 20260503215022 | 10 | 208 | 4.8 | 4.8 | 0.00 | 0.00 | 0.00 | 45 | 1007.1 |
| 20260503214022 | 10 | 208 | 4.8 | 4.8 | 0.00 | 0.00 | 0.00 | 44 | 1007.1 |
| 20260503213022 | 10 | 208 | 4.8 | 4.8 | 0.00 | 0.00 | 0.00 | 41 | 1007.1 |
| 20260503212022 | 10 | 208 | 4.8 | 4.8 | 0.00 | 0.00 | 0.00 | 40 | 1007.0 |
| 20260503211021 | 11 | 208 | 4.8 | 4.8 | 0.00 | 0.00 | 0.00 | 40 | 1006.8 |
| 20260503210021 | 11 | 208 | 4.8 | 4.8 | 0.00 | 0.00 | 0.00 | 38 | 1006.8 |
| 20260503205021 | 11 | 208 | 4.8 | 4.8 | 0.00 | 0.00 | 0.00 | 36 | 1006.8 |
| 20260503204022 | 11 | 208 | 4.8 | 4.8 | 0.00 | 0.00 | 0.00 | 36 | 1007.1 |
| 20260503203022 | 11 | 208 | 4.8 | 4.8 | 0.00 | 0.00 | 0.00 | 35 | 1007.1 |
| 20260503202022 | 11 | 208 | 4.8 | 4.8 | 0.00 | 0.00 | 0.00 | 36 | 1007.4 |
| 20260503201021 | 11 | 208 | 4.8 | 4.8 | 0.00 | 0.00 | 0.00 | 35 | 1007.4 |
| 20260503200021 | 11 | 208 | 4.8 | 4.8 | 0.00 | 0.00 | 0.00 | 35 | 1007.4 |
| 20260503195022 | 11 | 208 | 4.8 | 4.8 | 0.00 | 0.00 | 0.00 | 39 | 1007.8 |
| 20260503194021 | 11 | 208 | 4.8 | 4.8 | 0.00 | 0.00 | 0.00 | 41 | 1007.8 |
| 20260503193022 | 10 | 208 | 4.8 | 4.8 | 0.00 | 0.00 | 0.00 | 38 | 1007.8 |
| 20260503192021 | 10 | 208 | 4.8 | 4.8 | 0.00 | 0.00 | 0.00 | 41 | 1007.8 |
| 20260503191022 | 10 | 208 | 4.8 | 4.8 | 0.00 | 0.00 | 0.00 | 40 | 1007.8 |
| 20260503190022 | 10 | 208 | 4.8 | 4.8 | 0.00 | 0.00 | 0.00 | 38 | 1008.0 |
| 20260503185022 | 10 | 208 | 4.8 | 4.8 | 0.00 | 0.00 | 0.00 | 40 | 1008.2 |
| 20260503184022 | 10 | 208 | 4.8 | 4.8 | 0.00 | 0.00 | 0.00 | 42 | 1008.2 |
| 20260503183022 | 10 | 208 | 4.8 | 4.8 | 0.00 | 0.00 | 0.00 | 43 | 1008.4 |
| 20260503182022 | 10 | 208 | 4.8 | 4.8 | 0.00 | 0.00 | 0.00 | 45 | 1008.5 |
| 20260503181021 | 10 | 208 | 4.8 | 4.8 | 0.00 | 0.00 | 0.00 | 46 | 1008.5 |
| 20260503180021 | 8 | 208 | 4.8 | 4.8 | 0.00 | 0.00 | 0.00 | 46 | 1008.6 |
| 20260503175021 | 8 | 208 | 4.8 | 4.8 | 0.00 | 0.00 | 0.00 | 46 | 1008.6 |
| 20260503174021 | 8 | 208 | 4.8 | 4.8 | 0.00 | 0.00 | 0.00 | 47 | 1008.6 |
| 20260503173022 | 8 | 208 | 4.8 | 4.8 | 0.00 | 0.00 | 0.00 | 53 | 1008.8 |
| 20260503172022 | 8 | 208 | 4.8 | 4.8 | 0.00 | 0.00 | 0.00 | 49 | 1008.9 |
| 20260503171021 | 7 | 208 | 4.8 | 4.8 | 0.00 | 0.00 | 0.00 | 51 | 1009.0 |
| 20260503131022 | 5 | 208 | 4.8 | 4.8 | 0.00 | 0.00 | 0.00 | 61 | 1010.1 |